This demonstration page uses our WeatherBlox Daily Observations layout. Learn more.

Left ArrowRight Arrow

38.88101, -77.10428

Hourly Observations for October 5, 2022

Temp ( °F °C ) Dew Point ( °F °C ) Humidity (%) Winds ( mph kmh ) Pressure ( in mb ) Visibility ( mi km ) Precip ( " mm )
12:52 am 00:52 Cloudy with Light Rain 51 10.6 48 8.9 89 89 NW 18 30 29.93 1013 10 16 0.01 0.25
1:39 am 01:39 Cloudy 51 10.6 48 8.9 89 89 NNW 12 19 29.93 1014 10 16 0.01 0.13
1:52 am 01:52 Cloudy 51 10.6 48 8.9 89 89 NNW 15 24 29.92 1013 10 16 0.01 0.13
2:10 am 02:10 Cloudy 51 10.6 48 8.9 89 89 NW 15 24 29.92 1013 10 16 0.00 0.00
2:52 am 02:52 Cloudy 51 10.6 48 8.9 89 89 NNW 12 19 29.91 1013 10 16 0.00 0.00
3:31 am 03:31 Cloudy with Drizzle 51 10.6 49 9.4 92 92 NNW 12 19 29.91 1013 7 11 0.01 0.13
3:43 am 03:43 Cloudy with Drizzle 51 10.6 49 9.4 92 92 NNW 13 20 29.91 1013 6 10 0.01 0.13
3:52 am 03:52 Cloudy with Drizzle 51 10.6 49 9.4 92 92 NNW 10 17 29.91 1013 5 8 0.01 0.13
4:37 am 04:37 Cloudy with Drizzle 52 11.1 49 9.4 89 89 NNW 12 19 29.91 1013 10 16 0.01 0.13
4:52 am 04:52 Cloudy with Drizzle 52 11.1 49 9.4 89 89 NNW 13 20 29.91 1013 5 8 0.01 0.25
5:16 am 05:16 Cloudy with Drizzle 52 11.1 50 10 93 93 NNW 8 13 29.91 1013 8 13 0.01 0.13
5:25 am 05:25 Cloudy with Drizzle 52 11.1 49 9.4 89 89 NW 13 20 29.91 1013 5 8 0.01 0.13
5:52 am 05:52 Cloudy with Light Rain 52 11.1 50 10 93 93 NW 13 20 29.92 1013 4 6 0.01 0.13
6:13 am 06:13 Cloudy with Light Rain 53 11.7 50 10 89 89 NW 14 22 29.92 1013 4 6 0.01 0.25
6:39 am 06:39 Cloudy with Drizzle 52 11.1 50 10 93 93 NW 14 22 29.93 1014 3 5 0.02 0.51
6:52 am 06:52 Cloudy with Light Rain 52 11.1 50 10 93 93 NNW 14 22 29.93 1013 3 5 0.03 0.76
7:14 am 07:14 Cloudy with Light Rain 53 11.7 50 10 89 89 NNW 13 20 29.93 1014 10 16 0.02 0.51
7:52 am 07:52 Cloudy with Light Rain 53 11.7 51 10.6 93 93 NW 14 22 29.93 1014 5 8 0.02 0.51
8:04 am 08:04 Cloudy 53 11.7 51 10.6 93 93 NNW 14 22 29.94 1014 9 14 0.01 0.13
8:17 am 08:17 Cloudy with Rain 53 11.7 51 10.6 93 93 NNW 12 19 29.94 1014 3 4 0.01 0.25
8:29 am 08:29 Cloudy with Heavy Rain 54 12.2 52 11.1 93 93 NNW 12 19 29.95 1014 2 3 0.05 1.27
8:34 am 08:34 Cloudy with Light Rain 54 12.2 52 11.1 93 93 NNW 14 22 29.94 1014 3 5 0.05 1.27
8:52 am 08:52 Cloudy 54 12.2 52 11.1 93 93 NNW 13 20 29.95 1014 10 16 0.05 1.27
9:52 am 09:52 Cloudy 55 12.8 53 11.7 93 93 NNW 14 22 29.96 1015 9 14 0.01 0.13
10:52 am 10:52 Cloudy with Light Rain 57 13.9 54 12.2 89 89 N 10 17 29.98 1015 10 16 0.01 0.13
11:23 am 11:23 Cloudy 57 13.9 54 12.2 89 89 N 12 19 29.98 1015 10 16 0.01 0.13
11:52 am 11:52 Cloudy 58 14.4 54 12.2 87 87 N 13 20 29.98 1015 10 16 0.01 0.13
12:52 pm 12:52 Cloudy 60 15.6 56 13.3 86 86 NNW 14 22 29.98 1015 10 16 0.01 0.25
1:52 pm 13:52 Cloudy 62 16.7 56 13.3 80 80 NNW 12 19 29.97 1015 10 16 0.00 0.00
2:09 pm 14:09 Cloudy 62 16.7 56 13.3 80 80 NNW 13 20 29.97 1015 10 16 0.00 0.00
2:52 pm 14:52 Cloudy 66 18.9 57 13.9 73 73 NW 12 19 29.96 1015 10 16 0.00 0.00
2:59 pm 14:59 Cloudy 64 17.8 56 13.3 75 75 NNW 14 22 29.96 1014 10 16 0.00 0.00
3:12 pm 15:12 Cloudy 64 17.8 56 13.3 75 75 NW 16 26 29.95 1014 10 16 0.00 0.00
3:32 pm 15:32 Mostly Cloudy 66 18.9 56 13.3 70 70 NNW 16 26 29.95 1014 10 16 0.00 0.00
3:52 pm 15:52 Mostly Cloudy 67 19.4 56 13.3 68 68 NNW 12 19 29.95 1014 10 16 0.00 0.00
4:06 pm 16:06 Cloudy 67 19.4 56 13.3 68 68 NW 13 20 29.95 1014 10 16 0.00 0.00
4:52 pm 16:52 Mostly Cloudy 68 20 56 13.3 65 65 NNW 9 15 29.96 1014 10 16 0.00 0.00
4:58 pm 16:58 Cloudy 67 19.4 56 13.3 68 68 N 12 19 29.96 1014 10 16 0.00 0.00
5:52 pm 17:52 Cloudy 66 18.9 57 13.9 73 73 N 8 13 29.97 1015 10 16 0.00 0.00
6:52 pm 18:52 Cloudy 64 17.8 56 13.3 75 75 NNW 10 17 29.98 1015 10 16 0.00 0.00
7:52 pm 19:52 Cloudy 63 17.2 55 12.8 75 75 N 9 15 30.00 1016 10 16 0.00 0.00
8:52 pm 20:52 Partly Cloudy 62 16.7 55 12.8 78 78 N 5 7 30.01 1016 10 16 0.00 0.00
9:52 pm 21:52 Partly Cloudy 61 16.1 55 12.8 81 81 Calm 30.00 1016 10 16 0.00 0.00
10:52 pm 22:52 Mostly Clear 58 14.4 55 12.8 90 90 SSE 3 6 30.00 1016 10 16 0.00 0.00
11:52 pm 23:52 Partly Cloudy 57 13.9 55 12.8 93 93 Calm 30.00 1016 10 16 0.00 0.00

Powered by AerisWeather